www.pogodaiklimat.ru

Погода и климат >> Архив погоды >> Боливия >> Rurrenabaque


ПОГОДА в Rurrenabaque

  • Прогноз погоды в Rurrenabaque
  • Монитор погоды в Rurrenabaque
  • Климат города

АРХИВ ПОГОДЫ в Rurrenabaque

Время (UTC), дата Ветер
(напр.,м/с)
 
Видим.   Явления Облачность Т
(С)
Тd
(С)
f
(%)
Тe
(С)
Тes
(С)
Комфортность P
(гПа)
Po
(гПа)
Тmin
(С)
Tmax
(С)
R
(мм)
R24
(мм)
S
(см)
12 19.06 штиль 0 1000 м сильный дождь 10/9 150 м
[Frnb As op]
+23.8 +23.8 100 +32 +32 очень
душно
1012.7 989.8 +23.4 5
15 19.06 ЮВ 7 1000 м сильный дождь 10/9 120 м
[Frnb As op]
+16.0 +16.0 100 +14 +14 1018.2 994.8
18 19.06 ЮВ 7 3000 м слабый дождь 10/9 180 м
[Frnb As op]
+14.8 +14.7 99 +13 +13 1018.4 995.3 24
21 19.06 ЮВ 7 5000 м 10/9 150 м
[Frnb As op]
+13.1 +13.1 100 +10 +10 1018.5 994.9 +23.8
12 20.06 штиль 0 20 км 10/5 300 м
[St As op]
+14.1 +13.8 98 +14 +14 1021.0 997.4 +14.0 27
15 20.06 ЮВ 4 20 км 9/5 450 м
[Sc Ac lent]
+17.1 +15.6 91 +17 +18 1022.1 998.3
18 20.06 ЮВ 6 20 км 9/4 900 м
[Sc Ac trans]
+18.6 +12.4 67 +19 +20 1018.6 995.0
21 20.06 ЮВ 2 20 км 4/0
[Ci fib]
+19.8 +14.1 70 +22 +24 комфорт 1016.7 993.1 +21.0
12 21.06 штиль 0 20 км 9/6 900 м
[Sc Ac trans]
+15.2 +14.3 94 +15 +15 1018.2 994.6 +15.0
15 21.06 штиль 0 20 км 5/0 2000 м
[Ac trans]
+21.0 +18.2 84 +25 +36 комфорт 1019.2 995.6
18 21.06 ЮВ 3 20 км 1/1 600 м
[Cu hum]
+25.6 +20.2 72 +32 +40 очень
душно
1014.7 992.3
21 21.06 штиль 0 20 км 4/0 2000 м
[Ac lent]
+24.2 +21.0 82 +30 +32 очень
душно
1013.6 990.2 +26.4
12 22.06 штиль 0 20 км 1/0 2000 м
[Ac trans]
+16.6 +15.7 94 +16 +18 1015.2 991.8 +15.2
15 22.06 штиль 0 20 км 1/1 500 м
[Cu hum]
+25.6 +20.8 75 +32 +46 очень
душно
1015.8 992.4
18 22.06 С 5 20 км 1/1 500 м
[Cu hum]
+28.0 +22.8 73 +37 +42 очень
душно
1012.7 989.4
21 22.06 СЗ 3 20 км 1/1 500 м
[Cu hum]
+28.0 +23.6 77 +38 +39 очень
душно
1010.4 987.1 +28.5
12 23.06 штиль 0 20 км {туман} 4/1 600 м
[Sc Ac trans]
+18.4 +17.8 96 +19 +20 1011.8 988.5 +17.0
15 23.06 СЗ 2 20 км ясно +27.0 +22.7 77 +36 +47 очень
душно
1012.7 989.1
18 23.06 С 4 20 км 6/6 500 м
[Cu hum]
+29.4 +24.6 75 +42 +45 опасность
перегрева
1010.4 987.3
21 23.06 штиль 0 20 км 6/6 480 м
[Cb calv]
+28.0 +24.2 80 +39 +40 очень
душно
1009.3 986.2 +29.4
12 24.06 штиль 0 20 км 9/8 500 м
[Sc Ci]
+20.2 +19.9 98 +24 +24 комфорт 1013.2 990.1 +19.8
15 24.06 СЗ 2 20 км 6/1 500 м
[Cu med, cong Ac trans]
+27.8 +23.1 76 +37 +44 очень
душно
1014.7 991.6
18 24.06 СЗ 3 20 км 9/5 500 м
[Cu hum Ac trans]
+30.0 +24.4 72 +42 +45 опасность
перегрева
1012.6 989.7
21 24.06 штиль 0 20 км 9/4 600 м
[Sc Ac trans]
+28.0 +24.2 80 +39 +40 очень
душно
1011.3 988.2 +30.0
12 25.06 штиль 0 20 км 4/0 2000 м
[Ac trans]
+20.8 +20.0 95 +25 +27 комфорт 1014.5 991.4 +20.2
15 25.06 штиль 0 20 км 1/1 500 м
[Cu hum]
+29.4 +24.3 74 +41 +55 опасность
перегрева
1015.0 992.1
18 25.06 С 5 20 км 8/8 480 м
[Cb calv]
+31.4 +25.1 69 +45 +46 опасность
перегрева
1012.6 989.7
21 25.06 штиль 0 20 км в посл. час ливневой дождь 8/8 480 м
[Cb calv]
+28.4 +25.7 85 +42 +42 опасность
перегрева
1010.5 987.6 +31.6

 

Местоположение метеостанции Rurrenabaque (Боливия): широта -14.46 долгота -67.56 высота над уровнем моря 204 м.

В архиве по умолчанию представлена погода в Rurrenabaque за последнюю неделю. Архивные данные за месяц целиком и за предыдущие месяцы, начиная с января 2011 года, Вы можете получить, выбрав интересующий диапазон дат из раскрывающегося списка и нажав кнопку "Ввод!".

Внимание! Время в таблицах - всемирное. Для получения местного времени необходимо прибавить поправку, которая в Rurrenabaque равна -4 ч.

Смотрите также архив погоды в соседних городах и на ближайших метеорологических станциях:

Погода в Reyes (Боливия) (26 км)
Погода в Santa Rosa (Боливия) (78 км)
Погода в San Borja (Боливия) (87 км)
Погода в San Ignacio De Moxo (Боливия) (217 км)
Погода в Ovejuyo (Боливия) (235 км)
Погода в La Paz (Боливия) (238 км)
Погода в Santa Ana (Боливия) (243 км)
Погода в Baures (Боливия) (243 км)
Погода в Puerto Maldonado (Перу) (273 км)
Погода в Trinidad (Боливия) (288 км)

Пояснения к столбцам:

Ветер - указаны скорость ветра в м/с - средняя за 10 мин, порывы в срок и между сроками (в фигурных скобках) и направление, откуда дует ветер: С - северный, СВ - северо-восточный, В - восточный, ЮВ - юго-восточный, Ю - южный, ЮЗ - юго-западный, З - западный, СЗ - северо-западный.
Видимость - горизонтальная дальность видимости в метрах или километрах. При видимости от 1 до 10 км при отсутствии осадков обычно наблюдается дымка, при ухудшении видимости до 1 км и менее - туман. В сухую погоду видимость может ухудшаться дымом, пылью или мглою.
Явления - указаны атмосферные явления, наблюдавшиеся в срок или в последний час перед сроком; фигурными скобками обозначены явления, наблюдавшиеся между сроками (за 1-3 часа до срока); квадратными скобками обозначены град или гололедные отложения с указанием их диаметра в мм.
Облачность - указаны через наклонную черту общая и нижняя облачность в баллах и высота нижней границы облаков в метрах; квадратными скобками обозначены формы облаков: Ci - перистые, Cs - перисто-слоистые, Cc - перисто-кучевые, Ac - высококучевые, As - высокослоистые, Sc - слоисто-кучевые, Ns - слоисто-дождевые, Cu - кучевые, Cb - кучево-дождевые. Подробнее классификацию облаков см. в Атласе облаков (PDF).
T - Температура воздуха - температура, измеренная на высоте 2 м над землей.
Td - Температура точки росы - температура, при понижении до которой содержащийся в воздухе водяной пар достигнет насыщения.
f - Относительная влажность воздуха - влажноcть воздуха, измеренная на высоте 2 м над землей.
Te - Эффективная температура - температура, которую ощущает одетый по сезону человек в тени. Характеристика душности погоды. При расчете учитывается влияние влажности воздуха и скорости ветра на теплоощущения человека.
Tes - Эффективная температура на солнце - температура, которую ощущает человек, с поправкой на солнечный нагрев. Характеристика знойности погоды. Зависит от высоты солнца над горизонтом, облачности и скорости ветра. Ночью, в пасмурную погоду, а также при ветре 12 м/с и более поправка равна нулю.
P - Атмосферное давление - приведенное к уровню моря атмосферное давление.
Po - Атмосферное давление - измеренное на уровне метеостанции атмосферное давление.
Tmin - Минимальная температура - минимум температуры воздуха на высоте 2 м над землей.
Tmax - Максимальная температура - максимум температуры воздуха на высоте 2 м над землей.
R - Количество осадков - Количество выпавших осадков за период времени, мм. При наведении курсора мыши на число - период времени, за который выпало указанное количество осадков.
R24 - Количество осадков - Количество выпавших осадков за 24 часа, мм.
S - Снежный покров - Высота снежного покрова, см. При наведении курсора мыши на число - состояние снежного покрова и степень покрытия местности в баллах.